TAP1929 LPPR-LPPT

Flight info

Callsign TAP1929
Flight time 0h 39m
Altitude 22000
Route MANIK DCT ABRIL DCT XAMAX
Aircraft A320/M-SDE3FGHIRWY/LB1

Departure

Time 2026-05-03 20:17
Airport Francisco de Sá Carneiro Airport (LPPR)

Arrival

Time 2026-05-03 20:57
Airport Lisbon Humberto Delgado Airport (LPPT)
Time Latitude Longitude Altitude Speed Heading
2026-05-03 20:15 41.23295 -8.67703 238 ft 8 kts 281°
2026-05-03 20:15 41.23332 -8.67738 239 ft 6 kts 347°
2026-05-03 20:15 41.23355 -8.67745 238 ft 0 kts 348°
2026-05-03 20:16 41.23356 -8.67745 238 ft 0 kts 348°
2026-05-03 20:16 41.23359 -8.67746 238 ft 3 kts 348°
2026-05-03 20:16 41.23594 -8.67808 230 ft 78 kts 348°
2026-05-03 20:17 41.24389 -8.68017 209 ft 155 kts 348°
2026-05-03 20:17 41.25599 -8.68334 548 ft 189 kts 348°
2026-05-03 20:17 41.26917 -8.68680 1473 ft 193 kts 348°
2026-05-03 20:17 41.28226 -8.69036 2367 ft 199 kts 347°
2026-05-03 20:18 41.29669 -8.69413 2742 ft 223 kts 349°
2026-05-03 20:18 41.31275 -8.69742 3223 ft 244 kts 350°
2026-05-03 20:18 41.33012 -8.70154 3793 ft 260 kts 348°
2026-05-03 20:18 41.34802 -8.70645 4651 ft 265 kts 347°
2026-05-03 20:19 41.36622 -8.71157 5536 ft 269 kts 347°
2026-05-03 20:19 41.38461 -8.71680 6413 ft 272 kts 345°
2026-05-03 20:19 41.40163 -8.72767 7233 ft 275 kts 319°
2026-05-03 20:19 41.41337 -8.74770 8048 ft 278 kts 294°
2026-05-03 20:20 41.41778 -8.77266 8867 ft 281 kts 270°
2026-05-03 20:20 41.41693 -8.78598 9277 ft 282 kts 258°
2026-05-03 20:20 41.40991 -8.80819 9995 ft 286 kts 235°
2026-05-03 20:20 41.39542 -8.82647 10762 ft 291 kts 210°
2026-05-03 20:21 41.37582 -8.83535 11151 ft 311 kts 185°
2026-05-03 20:21 41.35368 -8.83169 11441 ft 332 kts 166°
2026-05-03 20:21 41.33103 -8.82398 12057 ft 339 kts 166°
2026-05-03 20:21 41.30802 -8.81615 12759 ft 343 kts 166°
2026-05-03 20:22 41.28477 -8.80835 13473 ft 346 kts 166°
2026-05-03 20:22 41.26124 -8.80058 14154 ft 350 kts 167°
2026-05-03 20:22 41.23817 -8.79301 14803 ft 354 kts 167°
2026-05-03 20:22 41.21404 -8.78513 15457 ft 357 kts 167°
2026-05-03 20:23 41.18982 -8.77727 16099 ft 360 kts 167°
2026-05-03 20:23 41.16537 -8.76933 16711 ft 364 kts 167°
2026-05-03 20:23 41.14068 -8.76130 17313 ft 367 kts 167°
2026-05-03 20:23 41.11577 -8.75315 17901 ft 370 kts 167°
2026-05-03 20:24 41.09128 -8.74516 18465 ft 373 kts 167°
2026-05-03 20:24 41.06593 -8.73691 19036 ft 377 kts 167°
2026-05-03 20:24 41.04036 -8.72862 19602 ft 380 kts 167°
2026-05-03 20:24 41.01460 -8.72029 20159 ft 383 kts 167°
2026-05-03 20:25 40.98862 -8.71192 20699 ft 386 kts 167°
2026-05-03 20:25 40.96216 -8.70536 20949 ft 388 kts 171°
2026-05-03 20:25 40.93551 -8.69996 21006 ft 388 kts 172°
2026-05-03 20:25 40.90910 -8.69517 21009 ft 387 kts 173°
2026-05-03 20:26 40.88200 -8.69051 21009 ft 387 kts 173°
2026-05-03 20:26 40.85565 -8.68597 21009 ft 387 kts 173°
2026-05-03 20:26 40.82907 -8.68132 21011 ft 387 kts 173°
2026-05-03 20:26 40.80235 -8.67658 21009 ft 387 kts 173°
2026-05-03 20:27 40.77594 -8.67180 21009 ft 387 kts 173°
2026-05-03 20:27 40.74923 -8.66689 21009 ft 387 kts 172°
2026-05-03 20:27 40.72258 -8.66194 21009 ft 387 kts 172°
2026-05-03 20:27 40.69618 -8.65704 21009 ft 387 kts 172°
2026-05-03 20:28 40.66909 -8.65205 21012 ft 400 kts 173°
2026-05-03 20:28 40.64129 -8.64700 21009 ft 405 kts 173°
2026-05-03 20:28 40.61329 -8.64189 21009 ft 407 kts 173°
2026-05-03 20:28 40.58528 -8.63676 21009 ft 407 kts 172°
2026-05-03 20:29 40.55722 -8.63160 21010 ft 407 kts 172°
2026-05-03 20:29 40.52913 -8.62646 21010 ft 407 kts 173°
2026-05-03 20:29 40.50095 -8.62541 21006 ft 406 kts 187°
2026-05-03 20:29 40.47366 -8.63449 21011 ft 405 kts 201°
2026-05-03 20:30 40.44763 -8.64735 21008 ft 405 kts 201°
2026-05-03 20:30 40.42126 -8.66061 21011 ft 405 kts 201°
2026-05-03 20:30 40.39494 -8.67396 21009 ft 405 kts 201°
2026-05-03 20:30 40.36864 -8.68729 21009 ft 405 kts 201°
2026-05-03 20:31 40.34236 -8.70057 21009 ft 405 kts 201°
2026-05-03 20:31 40.31573 -8.71396 21013 ft 414 kts 201°
2026-05-03 20:31 40.28871 -8.72750 21010 ft 417 kts 201°
2026-05-03 20:31 40.26159 -8.74107 21009 ft 418 kts 201°
2026-05-03 20:32 40.23439 -8.75464 21009 ft 418 kts 201°
2026-05-03 20:32 40.20719 -8.76817 21008 ft 418 kts 201°
2026-05-03 20:32 40.17996 -8.78173 21011 ft 418 kts 201°
2026-05-03 20:32 40.15281 -8.79527 21009 ft 418 kts 201°
2026-05-03 20:33 40.12561 -8.80881 21008 ft 418 kts 201°
2026-05-03 20:33 40.09842 -8.82235 21010 ft 418 kts 201°
2026-05-03 20:33 40.07200 -8.83549 21009 ft 418 kts 201°
2026-05-03 20:33 40.04475 -8.84903 21011 ft 418 kts 201°
2026-05-03 20:34 40.01796 -8.86233 21009 ft 418 kts 201°
2026-05-03 20:34 39.99047 -8.87597 21009 ft 427 kts 201°
2026-05-03 20:34 39.96259 -8.88981 21009 ft 430 kts 201°
2026-05-03 20:34 39.93461 -8.90368 21011 ft 431 kts 201°
2026-05-03 20:35 39.90658 -8.91756 21009 ft 431 kts 201°
2026-05-03 20:35 39.87857 -8.93142 21009 ft 431 kts 201°
2026-05-03 20:35 39.85058 -8.94525 21009 ft 431 kts 201°
2026-05-03 20:35 39.82258 -8.95907 21010 ft 431 kts 201°
2026-05-03 20:36 39.79456 -8.97288 21009 ft 431 kts 201°
2026-05-03 20:36 39.76652 -8.98666 21010 ft 431 kts 201°
2026-05-03 20:36 39.73850 -9.00042 21009 ft 431 kts 201°
2026-05-03 20:36 39.71042 -9.01425 21011 ft 431 kts 201°
2026-05-03 20:37 39.68236 -9.02806 21009 ft 431 kts 201°
2026-05-03 20:37 39.65432 -9.04184 21012 ft 431 kts 201°
2026-05-03 20:37 39.62655 -9.05548 21009 ft 431 kts 201°
2026-05-03 20:37 39.59849 -9.06928 21010 ft 431 kts 201°
2026-05-03 20:38 39.57008 -9.08321 21008 ft 431 kts 201°
2026-05-03 20:38 39.54239 -9.09672 21008 ft 431 kts 201°
2026-05-03 20:38 39.51396 -9.11055 21009 ft 431 kts 201°
2026-05-03 20:38 39.48627 -9.12405 21009 ft 431 kts 201°
2026-05-03 20:39 39.45825 -9.13773 21008 ft 431 kts 201°
2026-05-03 20:39 39.43020 -9.15142 21009 ft 431 kts 201°
2026-05-03 20:39 39.40217 -9.16510 21008 ft 431 kts 201°
2026-05-03 20:39 39.37413 -9.17878 21009 ft 431 kts 201°
2026-05-03 20:40 39.34612 -9.19243 21010 ft 431 kts 201°
2026-05-03 20:40 39.31842 -9.20588 21002 ft 416 kts 201°
2026-05-03 20:40 39.29222 -9.21857 21005 ft 393 kts 201°
2026-05-03 20:40 39.26685 -9.23084 21010 ft 387 kts 201°
2026-05-03 20:41 39.24188 -9.24294 20820 ft 377 kts 201°
2026-05-03 20:41 39.21761 -9.25471 20058 ft 370 kts 201°
2026-05-03 20:41 39.19362 -9.26634 19326 ft 366 kts 201°
2026-05-03 20:41 39.17011 -9.27775 18606 ft 361 kts 201°
2026-05-03 20:42 39.14676 -9.28904 18018 ft 354 kts 201°
2026-05-03 20:42 39.12408 -9.29999 17594 ft 343 kts 201°
2026-05-03 20:42 39.10212 -9.31061 17180 ft 332 kts 201°
2026-05-03 20:42 39.08081 -9.32088 16782 ft 322 kts 201°
2026-05-03 20:43 39.06011 -9.33083 16397 ft 313 kts 201°
2026-05-03 20:43 39.03996 -9.34050 16019 ft 305 kts 201°
2026-05-03 20:43 39.02032 -9.34992 15653 ft 299 kts 201°
2026-05-03 20:43 39.00089 -9.35928 15293 ft 298 kts 201°
2026-05-03 20:44 38.98167 -9.36856 14938 ft 296 kts 201°
2026-05-03 20:44 38.96288 -9.37760 14590 ft 296 kts 201°
2026-05-03 20:44 38.94357 -9.38688 14224 ft 296 kts 201°
2026-05-03 20:44 38.92425 -9.39616 13862 ft 297 kts 201°
2026-05-03 20:45 38.90493 -9.40542 13499 ft 297 kts 201°
2026-05-03 20:45 38.88558 -9.41470 13133 ft 297 kts 201°
2026-05-03 20:45 38.86626 -9.42395 12757 ft 296 kts 201°
2026-05-03 20:45 38.84709 -9.43317 12391 ft 289 kts 201°
2026-05-03 20:46 38.82822 -9.44139 11854 ft 287 kts 191°
2026-05-03 20:46 38.80825 -9.44159 11087 ft 291 kts 168°
2026-05-03 20:46 38.78907 -9.43282 10304 ft 294 kts 158°
2026-05-03 20:46 38.77011 -9.42263 9558 ft 295 kts 158°
2026-05-03 20:47 38.75134 -9.41247 8936 ft 291 kts 158°
2026-05-03 20:47 38.73284 -9.40239 8279 ft 286 kts 158°
2026-05-03 20:47 38.71477 -9.39257 7279 ft 280 kts 158°
2026-05-03 20:47 38.69687 -9.38291 6176 ft 278 kts 158°
2026-05-03 20:48 38.67950 -9.37355 5535 ft 259 kts 158°
2026-05-03 20:48 38.66399 -9.36519 5398 ft 225 kts 158°
2026-05-03 20:48 38.65040 -9.35787 5269 ft 202 kts 158°
2026-05-03 20:48 38.63757 -9.35099 5143 ft 198 kts 158°
2026-05-03 20:49 38.62492 -9.34424 5018 ft 197 kts 158°
2026-05-03 20:49 38.61228 -9.33751 4897 ft 197 kts 158°
2026-05-03 20:49 38.59968 -9.33078 4778 ft 196 kts 158°
2026-05-03 20:49 38.58728 -9.32413 4650 ft 195 kts 158°
2026-05-03 20:50 38.57478 -9.31741 4523 ft 195 kts 158°
2026-05-03 20:50 38.56229 -9.31070 4399 ft 195 kts 158°
2026-05-03 20:50 38.55130 -9.30102 4270 ft 194 kts 124°
2026-05-03 20:50 38.54654 -9.28505 4151 ft 195 kts 93°
2026-05-03 20:51 38.54892 -9.26824 4067 ft 195 kts 61°
2026-05-03 20:51 38.55776 -9.25557 4011 ft 192 kts 29°
2026-05-03 20:51 38.56955 -9.24868 4040 ft 177 kts 21°
2026-05-03 20:51 38.58079 -9.24278 4033 ft 173 kts 21°
2026-05-03 20:52 38.59189 -9.23692 3936 ft 172 kts 21°
2026-05-03 20:52 38.60295 -9.23105 3750 ft 172 kts 21°
2026-05-03 20:52 38.61372 -9.22532 3534 ft 163 kts 21°
2026-05-03 20:52 38.62377 -9.21997 3332 ft 154 kts 21°
2026-05-03 20:53 38.63355 -9.21477 3136 ft 151 kts 21°
2026-05-03 20:53 38.64323 -9.20962 2997 ft 158 kts 21°
2026-05-03 20:53 38.65376 -9.20402 2767 ft 165 kts 21°
2026-05-03 20:53 38.66415 -9.19849 2517 ft 160 kts 21°
2026-05-03 20:54 38.67106 -9.19480 2373 ft 159 kts 21°
2026-05-03 20:54 38.69451 -9.18230 1891 ft 151 kts 21°
2026-05-03 20:54 38.70400 -9.17723 1692 ft 146 kts 21°
2026-05-03 20:55 38.71032 -9.17387 1557 ft 144 kts 21°
2026-05-03 20:55 38.71956 -9.16894 1363 ft 144 kts 21°
2026-05-03 20:55 38.72873 -9.16404 1171 ft 143 kts 21°
2026-05-03 20:55 38.73789 -9.15909 985 ft 142 kts 21°
2026-05-03 20:56 38.74689 -9.15429 795 ft 142 kts 21°
2026-05-03 20:56 38.75598 -9.14947 618 ft 141 kts 21°
2026-05-03 20:56 38.76502 -9.14458 406 ft 141 kts 21°
2026-05-03 20:56 38.77360 -9.14006 362 ft 112 kts 22°
2026-05-03 20:57 38.77923 -9.13705 365 ft 62 kts 22°
2026-05-03 20:57 38.78179 -9.13566 367 ft 27 kts 26°
2026-05-03 20:57 38.78294 -9.13459 367 ft 14 kts 44°
2026-05-03 20:57 38.78364 -9.13359 363 ft 17 kts 51°
2026-05-03 20:58 38.78373 -9.13288 365 ft 5 kts 114°
2026-05-03 20:58 38.78348 -9.13266 362 ft 0 kts 162°
2026-05-03 20:58 38.78343 -9.13264 361 ft 3 kts 167°
2026-05-03 20:58 38.78285 -9.13283 363 ft 11 kts 203°
2026-05-03 20:59 38.78178 -9.13340 360 ft 19 kts 202°
2026-05-03 20:59 38.78061 -9.13402 359 ft 17 kts 200°
2026-05-03 20:59 38.77926 -9.13391 353 ft 22 kts 168°
2026-05-03 20:59 38.77785 -9.13353 354 ft 20 kts 169°
2026-05-03 21:00 38.77647 -9.13322 338 ft 21 kts 176°
2026-05-03 21:00 38.77547 -9.13311 338 ft 22 kts 169°
2026-05-03 21:00 38.77351 -9.13263 334 ft 20 kts 171°
2026-05-03 21:00 38.77206 -9.13228 335 ft 22 kts 167°
2026-05-03 21:01 38.77055 -9.13187 336 ft 22 kts 168°
2026-05-03 21:01 38.76938 -9.13155 336 ft 14 kts 168°
2026-05-03 21:01 38.76884 -9.13137 337 ft 2 kts 138°
2026-05-03 21:01 38.76885 -9.13091 336 ft 0 kts 79°
2026-05-03 21:02 38.76886 -9.13083 335 ft 4 kts 78°
2026-05-03 21:02 38.76889 -9.13068 337 ft 1 kts 77°
2026-05-03 21:02 38.76890 -9.13058 336 ft 1 kts 78°
2026-05-03 21:02 38.76891 -9.13053 334 ft 1 kts 78°
2026-05-03 21:03 38.76891 -9.13052 334 ft 0 kts 78°